SB KEPS @ AMSAT $ORB09281.N 2Line Orbital Elements 09281.AMSAT
HR AMSAT ORBITAL ELEMENTS FOR AMATEUR SATELLITES IN NASA FORMAT FROM WA5QGD FORT WORTH,TX October 8, 2009 Send Subscribe/unsubscribe to KEPS at http://www.amsat.org/mailman/listinfo/keps BID: ORB09281.N
DECODE 2-LINE ELSETS WITH THE FOLLOWING KEY: 1 AAAAAU 00 0 0 BBBBB.BBBBBBBB .CCCCCCCC 00000-0 00000-0 0 DDDZ 2 AAAAA EEE.EEEE FFF.FFFF GGGGGGG HHH.HHHH III.IIII JJ.JJJJJJJJKKKKKZ KEY: A-CATALOGNUM B-EPOCHTIME C-DECAY D-ELSETNUM E-INCLINATION F-RAAN G-ECCENTRICITY H-ARGPERIGEE I-MNANOM J-MNMOTION K-ORBITNUM Z-CHECKSUM
TO ALL RADIO AMATEURS BT
AO-07 1 07530U 74089B 09281.65324924 -.00000027 00000-0 10000-3 0 5998 2 07530 101.4213 302.1422 0012073 047.0148 313.1937 12.53576741596930 FO-29 1 24278U 96046B 09280.78069744 .00000109 00000-0 14436-3 0 01614 2 24278 098.5343 139.5895 0351283 058.6276 304.8732 13.52946268648970 SO-33 1 25509U 98061B 09281.56655611 -.00000058 00000-0 -26119-4 0 5590 2 25509 031.4339 131.3826 0354868 249.8241 106.3935 14.28268026572059 RS-22 1 27939U 03042A 09281.50102925 .00000096 00000-0 27359-4 0 9088 2 27939 097.9240 152.1351 0014229 131.6051 228.6397 14.63345719322148 VO-52 1 28650U 05017B 09281.84679507 -.00000158 00000-0 -13411-4 0 3376 2 28650 097.7293 339.5935 0027417 021.0026 339.2312 14.81624974239473 AO-16 1 20439U 90005D 09280.50273428 .00000015 00000-0 21206-4 0 7205 2 20439 098.2936 243.8764 0010545 192.6028 167.4885 14.31835169 29229 LO-19 1 20442U 90005G 09281.44966555 .00000008 00000-0 18113-4 0 6342 2 20442 098.2572 251.6053 0011911 185.4613 174.6489 14.32069548 29529 AO-27 1 22825U 93061C 09280.50498346 -.00000072 00000-0 -11610-4 0 03590 2 22825 098.4497 230.4578 0007660 296.8589 063.1793 14.29274332835953 IO-26 1 22826U 93061D 09281.52527503 -.00000008 00000-0 13618-4 0 889 2 22826 098.4429 232.1486 0008156 289.1505 070.8794 14.29527756836206 GO-32 1 25397U 98043D 09281.75778388 -.00000125 00000-0 -37321-4 0 95 2 25397 098.3225 297.9962 0000303 305.0183 055.0968 14.23163999584284 NO-44 1 26931U 01043C 09280.92365407 -.00000194 00000-0 -43441-4 0 02869 2 26931 067.0505 133.9026 0006727 273.7557 086.2758 14.29567935418693 SO-50 1 27607U 02058C 09281.82328147 -.00000077 00000-0 97738-5 0 32 2 27607 064.5591 039.9603 0053604 176.8580 183.2875 14.71463663365398 CO-55 1 27844U 03031E 09280.53928147 .00000055 00000-0 45923-4 0 6837 2 27844 098.7149 288.1302 0009641 175.3150 184.8117 14.20659345325213 CO-57 1 27848U 03031J 09280.53257089 .00000041 00000-0 39593-4 0 06359 2 27848 098.7173 287.1870 0009442 179.9016 180.2161 14.20458734325176 AO-51 1 28375U 04025K 09281.59093878 .00000008 00000-0 14768-4 0 5045 2 28375 098.0546 284.6021 0083946 140.2119 220.5267 14.40654221277289 CO-56 1 28941U 06005C 09281.53967874 .00313380 49289-4 33427-3 0 5075 2 28941 098.1262 118.8892 0038214 054.9304 305.5540 16.08519477205292 GENESAT1 1 29655U 06058C 09281.89100695 .00015014 00000-0 13306-3 0 8271 2 29655 040.0231 189.6561 0005361 275.6780 084.3402 15.68128361160318 CP3 1 31129U 07012N 09281.65704995 .00000152 00000-0 46143-4 0 2455 2 31129 097.9759 329.2286 0101610 294.1148 064.9444 14.52167747131352 CO-65 1 32785U 08021C 09281.72724261 .00000063 00000-0 14763-4 0 4929 2 32785 097.9336 344.6825 0015800 025.9497 334.2494 14.81524469 78251 KKS-1 1 33493U 09002B 09281.76210036 .00000319 00000-0 48485-4 0 8263 2 33493 098.0665 034.5269 0019072 232.2138 127.7359 14.80742457 38273 SOHLA-1 1 33496U 09002E 09281.89923816 .00000031 00000-0 13545-4 0 7929 2 33496 098.0456 029.4798 0005441 287.0214 073.0385 14.69449172 37975 NOAA-10 1 16969U 86073A 09280.59374130 .00000034 00000-0 31890-4 0 07884 2 16969 098.6844 306.5948 0011637 227.1920 132.8280 14.27395923199545 NOAA-11 1 19531U 88089A 09280.64567305 .00000275 00000-0 16504-3 0 08067 2 19531 098.7824 008.8471 0011916 145.1500 215.0457 14.14905442085428 NOAA-12 1 21263U 91032A 09280.96663223 .00000035 00000-0 33836-4 0 03118 2 21263 098.7751 289.0936 0012152 174.7184 185.4126 14.25596100956463 MET-3/5 1 21655U 91056A 09280.96327109 .00000051 00000-0 10000-3 0 07983 2 21655 082.5536 126.8461 0012496 258.8952 101.0766 13.17021101872475 MET-2/21 1 22782U 93055A 09281.56749737 -.00000072 00000-0 -79019-4 0 5853 2 22782 082.5433 092.0721 0023230 031.9247 328.3320 13.83638303813286 OKEAN-4 1 23317U 94066A 09280.66558007 .00000203 00000-0 22114-4 0 00403 2 23317 082.5399 229.5100 0022512 358.8352 001.2806 14.82725673809031 NOAA-14 1 23455U 94089A 09280.91112099 .00000215 00000-0 13718-3 0 07854 2 23455 098.9016 358.1493 0008823 227.1449 132.8967 14.13770927761851 NOAA-15 1 25338U 98030A 09280.62566787 .00000041 00000-0 36143-4 0 01119 2 25338 098.5959 267.4300 0011738 090.5168 269.7336 14.24786983592788 RESURS 1 25394U 98043A 09280.92048615 -.00000041 00000-0 11416-6 0 03451 2 25394 098.3327 307.4875 0000531 243.4385 116.6740 14.24188330584443 FENGYUN1 1 25730U 99025A 09280.92007045 .00000389 00000-0 25381-3 0 08720 2 25730 098.7636 247.7460 0020997 258.0699 101.8116 14.08002087536185 OKEAN-0 1 25860U 99039A 09280.75470615 .00000031 00000-0 12127-4 0 8030 2 25860 097.7998 257.5425 0001172 101.6818 258.4517 14.73590637549722 NOAA-16 1 26536U 00055A 09280.63523620 .00000171 00000-0 11788-3 0 05902 2 26536 099.1800 287.0452 0010065 330.0886 029.9681 14.12535444466171 NOAA-17 1 27453U 02032A 09280.90938415 .00000195 00000-0 10305-3 0 05832 2 27453 098.4707 336.0241 0012307 150.6224 209.5635 14.24096894378791 NOAA-18 1 28654U 05018A 09280.91543524 .00000052 00000-0 53460-4 0 00711 2 28654 098.9179 223.3263 0015084 047.2405 313.0081 14.11290338225851 NOAA-19 1 33591U 09005A 09280.91963383 -.00000034 00000-0 50174-5 0 02764 2 33591 098.7572 223.7961 0013270 285.9174 074.0567 14.10989645034339 HUBBLE 1 20580U 90037B 09279.89851369 .00000375 00000-0 15956-4 0 04585 2 20580 028.4687 093.2015 0003125 031.7239 328.3580 15.00837150866658 ISS 1 25544U 98067A 09281.83912093 .00010859 00000-0 76536-4 0 7481 2 25544 051.6385 083.2882 0008095 175.9703 325.2543 15.74680102623857 CO-58 1 28895U 05043F 09281.23000602 .00000039 00000-0 17765-4 0 4141 2 28895 098.0413 168.5777 0017893 358.0110 002.1000 14.59800847210222 FALCON 1 30776U 07006E 09281.80143987 .00000455 00000-0 35907-4 0 6748 2 30776 035.4326 130.0566 0000951 245.7933 114.2685 15.03323252142209 MAST 1 31126U 07012K 09280.65627730 .00000033 00000-0 18251-4 0 07049 2 31126 097.9763 330.2374 0093702 291.1492 067.9729 14.53520116131370 CAPE1 1 31130U 07012P 09281.70174450 -.00000086 00000-0 -87080-5 0 7134 2 31130 097.9782 329.1653 0102090 294.2390 064.8171 14.52091410131168 COMPASS 1 32787U 08021E 09280.20827668 .00000319 00000-0 47182-4 0 04912 2 32787 097.9312 343.0175 0016420 032.2781 327.9427 14.81665848078032 AAUSAT2 1 32788U 08021F 09280.63946002 .00000432 00000-0 61327-4 0 04838 2 32788 097.9321 343.5235 0016287 031.9920 328.2263 14.81792975078109 DO-64 1 32789U 08021G 09280.72853768 .00000191 00000-0 30881-4 0 04951 2 32789 097.9361 343.8480 0016267 029.3089 330.9027 14.81808158078114 CO-66 1 32791U 08021J 09281.75020518 .00000377 00000-0 54830-4 0 4762 2 32791 097.9327 344.5763 0016795 025.2639 334.9387 14.81487907 78223 RS-30 1 32953U 08025A 09280.71417010 .00000010 00000-0 00000-0 0 04252 2 32953 082.5051 186.6489 0018502 297.4731 062.4460 12.43003073062379 TACSAT-3 1 35001U 09028A 09279.49558526 .00002903 00000-0 77924-4 0 01235 2 35001 040.4572 294.8373 0025205 271.0566 088.7360 15.39272655021505 PHARMSAT 1 35002U 09028B 09280.39909510 .00002463 00000-0 65308-4 0 1100 2 35002 040.4707 288.6142 0028074 281.6651 078.1014 15.40022592 21649 HAWKSAT1 1 35003U 09028C 09280.41205313 .00004744 00000-0 11700-3 0 01193 2 35003 040.4635 287.7151 0028403 285.3324 074.4353 15.40840447021668 CP6 1 35004U 09028D 09280.41004387 .00005338 00000-0 13060-3 0 01148 2 35004 040.4637 287.7061 0027853 285.3055 074.4680 15.40927094021656 AEROCUB3 1 35005U 09028E 09280.94589624 .00004878 00000-0 12072-3 0 01228 2 35005 040.4764 284.8862 0027744 286.6250 073.1519 15.40712676021739 DRAGNSAT 1 35690U 09038B 09281.71213203 .00030857 00000-0 13918-3 0 687 2 35690 051.6419 079.6538 0003235 343.3974 016.6919 15.83740608 11113 POLLUX 1 35693U 09038E 09281.73835499 .00028510 00000-0 13356-3 0 699 2 35693 051.6378 079.8398 0003089 278.3421 081.6987 15.82980838 11080 CASTOR 1 35694U 09038F 09281.76994682 .00014667 00000-0 75397-4 0 662 2 35694 051.6392 080.0666 0003151 285.4687 074.5880 15.81502465 11080 METEOR-M 1 35865U 09049A 09281.76650640 .00000176 00000-0 10000-3 0 194 2 35865 098.7975 331.8829 0002899 027.2485 332.8774 14.21827137 2994 STERKH-2 1 35866U 09049B 09280.63398785 .00000178 00000-0 10000-3 0 00225 2 35866 098.7987 330.7740 0003392 029.6061 330.5271 14.22296401002838 FREGAT-I 1 35867U 09049C 09281.82260829 .00002264 00000-0 10000-3 0 335 2 35867 097.3715 331.5049 0008931 209.1338 150.9240 15.22722183 3215 SUMBDILA 1 35870U 09049F 09281.90645946 .00000429 00000-0 21302-4 0 604 2 35870 097.3706 331.5781 0010696 214.8334 251.3038 15.22803385 3228 /EX
participants (1)
-
Ray Hoad